Regional Weather Roundup
Issued by NWS

Home | Current Version | Previous Version | Graphics & Text | Print | Product List | Glossary On
Versions: 1 2 3 4 5 6 7 8 9 10 11 12 13 14 15 16 17 18 19 20 21 22 23 24 25 26 27 28 29 30 31 32 33 34 35 36 37 38 39 40 41 42 43 44 45 46 47 48 49 50
000
ASUS45 KBOU 170707
RWRCO

WEATHER ROUNDUP FOR COLORADO
NATIONAL WEATHER SERVICE DENVER/BOULDER CO
1200 AM MST WED DEC 17 2014

NOTE: "FAIR" INDICATES FEW OR NO CLOUDS BELOW 12000 FEET WITH NO
SIGNIFICANT WEATHER AND/OR OBSTRUCTIONS TO VISIBILITY.

COZ001>005-013-030-031-170800-
...NORTHWEST COLORADO...

CITY           SKY/WX    TMP DP  RH WIND       PRES   REMARKS
CRAIG          CLOUDY    17  14  88 CALM      30.07R
HAYDEN         CLOUDY    25  19  80 E8        30.05S WCI  16
MEEKER         CLOUDY    22  19  89 CALM      30.05F
MOUNT WERNER   NOT AVBL
STEAMBOAT SPGS CLOUDY    20  19  93 CALM      30.05S
WALDEN         CLOUDY    18  12  79 CALM      30.02F
$$

COZ006>008-011-170800-
...WEST CENTRAL VALLEYS...

CITY           SKY/WX    TMP DP  RH WIND       PRES   REMARKS
GRAND JUNCTION CLOUDY    30  28  92 CALM      30.06S
MONTROSE       MOCLDY    31  26  82 CALM      30.07S
EAGLE          CLOUDY    14  12  92 CALM      30.14S
RIFLE          MOCLDY    27  24  89 CALM      30.07F
DELTA          MOCLDY    32  26  78 CALM      30.07S
NUCLA          CLOUDY    32  28  86 SE3       30.09F
$$

COZ017>023-064>068-170800-
...SOUTHWEST COLORADO...

CITY           SKY/WX    TMP DP  RH WIND       PRES   REMARKS
DURANGO        CLOUDY    31  26  82 NE6       30.07F WCI  25
CORTEZ         CLOUDY    32  26  78 NE3       30.06S
PAGOSA SPRINGS CLOUDY    26  25  96 CALM      30.11F
TELLURIDE      MOCLDY    32  18  56 CALM      30.08F
WOLF CREEK PAS CLOUDY    16  12  86 MISG      30.11F
$$

COZ009-010-012-014-032>034-037-058>063-170800-
...CENTRAL COLORADO...

CITY           SKY/WX    TMP DP  RH WIND       PRES   REMARKS
ASPEN          CLOUDY    23  20  88 CALM      30.04F
BUENA VISTA    PTCLDY    19  13  76 NW5       30.05F WCI  12
COPPER MTN     CLOUDY    23  10  58 SW5       30.07F WCI  17
BERTHOUD PASS  FAIR      14   9  79 MISG      30.06F
COTTONWOOD PAS PTCLDY    30  18  59 CALM      30.05F
GUNNISON       PTCLDY    12  10  92 CALM      30.12S
KREMMLING      CLOUDY   N/A N/A N/A CALM      30.12F
LEADVILLE      PTCLDY    11   7  84 CALM      30.04F
MONARCH PASS   MOCLDY    18  14  86 MISG      30.17S
SALIDA         PTCLDY    31  15  51 NW5       30.12S WCI  26
SUNLIGHT       CLOUDY    25  23  93 CALM      30.08F
WILKERSON PASS PTCLDY    19  12  73 SW8       30.07F WCI   9
$$

COZ069>075-170800-
...SAN LUIS VALLEY/SANGRE DE CRISTO MOUNTAINS...

CITY           SKY/WX    TMP DP  RH WIND       PRES   REMARKS
ALAMOSA        CLOUDY    17  11  77 CALM      30.09F
LA VETA PASS   PTCLDY    23  12  63 S7        30.06R WCI  15
SAGUACHE       MOCLDY    23  12  63 NW8       30.09F WCI  14
$$

COZ035-036-038>040-170800-
...NORTHERN COLORADO FRONT RANGE...

CITY           SKY/WX    TMP DP  RH WIND       PRES   REMARKS
DENVER INTL AP PTCLDY    23  19  85 W3        30.01F
DMNS CITY PARK   N/A     24  20  87 E1        30.03S
AURORA         MOCLDY    24  19  81 W3        30.02F
FRONT RANGE AP PTCLDY    23  19  86 W7        30.02F WCI  15
ERIE MUNI ARPT   N/A     17  16  95 CALM      30.03S
BOULDER MUN AP CLEAR     25  23  93 CALM      30.02F
CENTENNIAL     PTCLDY    23  16  74 S5        30.01S WCI  17
BROOMFIELD     CLEAR     27  23  86 CALM      30.01F
FORT COLLINS   PTCLDY    19  16  86 CALM      30.03F
LONGMONT       PTCLDY    20  18  89 W3        30.06S
$$

COZ041-046-047-076>085-087-088-170800-
...PIKES PEAK/PALMER DIVIDE AND SOUTHERN FOOTHILLS...

CITY           SKY/WX    TMP DP  RH WIND       PRES   REMARKS
COLO. SPRINGS  PTCLDY    20  14  77 N5        30.01F WCI  13
A. F. ACADEMY  PTCLDY    21  16  82 VRB6      29.99S WCI  13
ELLICOTT       NOT AVBL
FALCON         PTCLDY    30  18  61 W7        30.00S WCI  23
FORT CARSON    PTCLDY    23  16  73 W2        30.00F
LIMON          PTCLDY    10   7  87 N3        30.03S
MONUMENT HILL  PTCLDY    23  14  68 W9        29.99F WCI  13
TRINIDAD       PTCLDY    34  21  59 W12       30.00F WCI  25
$$

COZ042>045-048>051-090-091-170800-
...NORTHEAST COLORADO...

CITY           SKY/WX    TMP DP  RH WIND       PRES   REMARKS
GREELEY ARPT   PTCLDY    21  12  68 CALM      30.03F
AKRON          FOG       17  16  95 SE10      30.05F VSB 1/4 WCI   5
BURLINGTON     PTCLDY    21  18  88 SE14      30.06F WCI   8
WRAY           PTCLDY    20  20 100 E3        30.12F FOG
STERLING       PTCLDY    27  25  93 S8        30.07F WCI  18
HOLYOKE        NOT AVBL
FORT MORGAN    MOCLDY    14  12  92 S3        30.06S
$$

COZ086-089-092>099-170800-
...SOUTHEAST COLORADO...

CITY           SKY/WX    TMP DP  RH WIND       PRES   REMARKS
PUEBLO         NOT AVBL
LA JUNTA       MOCLDY    24  21  88 W6        30.04S WCI  17
LAMAR          PTCLDY    27  25  92 S6        30.03F WCI  20
SPRINGFIELD      N/A     36  25  64 S12       30.00F
$$


USA.gov is the U.S. government's official web portal to all federal, state and local government web resources and services.